Flag for Germany Weather past 2 weeks in Gummersbach, North Rhine-Westphalia, Germany

Now
55 °F

Rain. Mostly cloudy.


Feels Like: 54 °F
Forecast: 52 / 64 °F
Wind: 6 mph from Northwest

Location: Koeln / Bonn

Current Time: Aug 27, 2015 at 10:12:56 PM

Latest Report: Aug 27, 2015 at 9:50 PM


Visibility: 6 mi

Pressure: 29.89 "Hg

Humidity: 94%

Dew point: 54 °F

Location of GummersbachLocation

Historic Weather in Gummersbach — Graph

°F

Gummersbach temperature yesterday

Maximum temperature yesterday: 81 °F (at 2:50 PM)
Minimum temperature yesterday: 59 °F (at 7:20 AM)
Average temperature yesterday: 71 °F

Past Weeks' High & Low Weather Summary

 TemperatureHumidityPressure
High90 °F (Aug 13, 3:20 PM)94% (Aug 13, 3:20 AM)30.27 "Hg (Aug 13, 3:20 AM)
Low46 °F (Aug 19, 6:50 AM)26% (Aug 23, 3:20 PM)29.56 "Hg (Aug 24, 2:20 PM)
Average66 °F69%29.94 "Hg
* Reported Aug 12 8:20 PM — Aug 27 8:50 PM, Gummersbach, Weather by CustomWeather, © 2015

Note: Actual official high and low records may vary slightly from our data, if they occured in-between our weather recording intervals... More about our weather records

Advertising

Gummersbach weather history for previous 24 hours

 ConditionsComfort  
Time TempWeatherWind HumidityBarometerVisibility
8:50 PM
Thu, Aug 27
57 °FRain. Broken clouds.2 mph88%29.89 "Hg4 mi
8:20 PM57 °FRain. Broken clouds.3 mph88%29.89 "Hg4 mi
7:50 PM57 °FRain. Broken clouds.2 mph88%29.89 "Hg4 mi
7:20 PM57 °FRain. More clouds than sun.3 mph88%29.86 "Hg4 mi
6:50 PM57 °FRain. Low clouds.5 mph88%29.89 "Hg6 mi
6:20 PM57 °FRain. More clouds than sun.6 mph88%29.89 "HgN/A
5:50 PM57 °FLight rain. More clouds than sun.8 mph94%29.89 "HgN/A
5:20 PM57 °FLight rain. More clouds than sun.12 mph94%29.89 "HgN/A
4:50 PM59 °FLight rain. More clouds than sun.5 mph94%29.86 "HgN/A
4:20 PM59 °FLight rain. More clouds than sun.7 mph88%29.86 "HgN/A
3:50 PM59 °FLight rain. More clouds than sun.3 mph88%29.86 "HgN/A
3:20 PM61 °FLight rain. Mostly cloudy.6 mph88%29.86 "HgN/A
2:50 PM61 °FLight rain. More clouds than sun.6 mph83%29.89 "HgN/A
2:20 PM61 °FLight rain. Partly sunny.9 mph83%29.89 "HgN/A
1:50 PM63 °FDrizzle. Partly sunny.9 mph83%29.89 "HgN/A
1:20 PM64 °FLight rain. Partly sunny.9 mph83%29.89 "HgN/A
12:50 PM64 °FLight rain. Partly sunny.6 mph83%29.89 "HgN/A
12:20 PM63 °FPartly sunny.6 mph88%29.89 "HgN/A
11:50 AM64 °FPartly sunny.7 mph83%29.89 "HgN/A
11:20 AM63 °FLight rain. Broken clouds.8 mph88%29.86 "HgN/A
10:50 AM63 °FLight rain. Broken clouds.6 mph83%29.89 "HgN/A
10:20 AM63 °FLight rain. Broken clouds.12 mph83%29.89 "HgN/A
9:50 AM64 °FLight rain. Broken clouds.9 mph83%29.89 "HgN/A
9:20 AM66 °FLight rain. Broken clouds.8 mph68%29.89 "HgN/A
8:50 AM68 °FLight rain. Broken clouds.12 mph64%29.86 "HgN/A
8:20 AM68 °FLight rain. Broken clouds.10 mph69%29.86 "HgN/A
7:50 AM68 °FLight rain. Broken clouds.7 mph73%29.86 "HgN/A
7:20 AM70 °FPartly cloudy.7 mph64%29.86 "HgN/A
6:50 AM70 °FPassing clouds.7 mph64%29.83 "HgN/A
6:20 AM72 °FPassing clouds.9 mph57%29.83 "HgN/A
5:50 AM72 °FPartly cloudy.9 mph57%29.83 "HgN/A
5:20 AM72 °FPartly cloudy.9 mph53%29.83 "HgN/A
4:50 AM72 °FLight rain. Partly cloudy.9 mph53%29.80 "HgN/A
4:20 AM70 °FLight rain. Clear.7 mph57%29.80 "HgN/A
3:50 AM72 °FClear.7 mph53%29.80 "Hg10 mi
3:20 AM72 °FLight rain. Clear.8 mph53%29.80 "HgN/A
2:50 AM73 °FClear.8 mph47%29.80 "Hg10 mi
2:20 AM73 °FClear.8 mph47%29.80 "Hg10 mi
1:50 AM73 °FClear.9 mph47%29.80 "Hg10 mi
1:20 AM72 °FClear.12 mph50%29.80 "Hg10 mi
12:50 AM72 °FClear.10 mph53%29.80 "Hg10 mi
12:20 AM72 °FClear.10 mph53%29.80 "Hg10 mi
11:50 PM
Wed, Aug 26
72 °FLight rain. Clear.8 mph53%29.80 "HgN/A
11:20 PM73 °FClear.12 mph47%29.80 "Hg10 mi
10:50 PM73 °FClear.10 mph50%29.80 "Hg10 mi
10:20 PM73 °FClear.12 mph47%29.80 "Hg10 mi
Weather by CustomWeather, © 2015

See weather overviewHow to use our weather pages